Asheboro, NC

2:41 PM EDT on May 27, 2017 (GMT -0400)
Asheboro Municipal

Weather History for KHBI - March, 2013

Change the Weather History Date:

Wednesday, March 13, 2013

  Actual Average Record
Temperature  
Mean Temperature 42 °F -  
Max Temperature 53 °F 64 °F 89 °F (1990)
Min Temperature 32 °F 41 °F 20 °F (1960)
Degree Days  
Heating Degree Days 22    
Moisture  
Dew Point 25 °F    
Average Humidity 53    
Maximum Humidity 95    
Minimum Humidity 26    
Precipitation  
Precipitation 0.00 in - - ()
Sea Level Pressure  
Sea Level Pressure 30.06 in    
Wind  
Wind Speed 4 mph (WNW)    
Max Wind Speed 15 mph    
Max Gust Speed 25 mph    
Visibility 10 miles    
Events      
Averages and records for this station are not official NWS values.
T = Trace of Precipitation, MM = Missing Value Source: NWS Daily Summary

Daily Weather History Graph

Daily Weather History Graph

Search for Another Location

Airport or City:

Trip Planner

Search our weather history database for the weather conditions in past years. The results will help you decide how hot, cold, wet, or windy it might be!

Date:

Astronomy

Mar. 13, 2013 Rise Set
Actual Time 7:32 AM EDT 7:25 PM EDT
Civil Twilight 7:07 AM EDT 7:51 PM EDT
Nautical Twilight 6:37 AM EDT 8:20 PM EDT
Astronomical Twilight 6:08 AM EDT 8:50 PM EDT
Moon 8:16 AM EDT (3/13) 9:34 PM EDT (3/13)
Length of Visible Light 12h 43m
Length of Day
11h 52m
Waxing Crescent, 4% of the Moon is Illuminated
Mar 13
Waxing Crescent
Mar 19
First Quarter
Mar 27
Full
Apr 3
Last Quarter
Apr 10
New

Hourly Weather History & Observations

Time (EDT) Temp. Windchill Dew Point Humidity Pressure Visibility Wind Dir Wind Speed Gust Speed Precip Events Conditions
12:15 AM 44.8 °F - 34.2 °F 66% 30.01 in 10.0 mi Calm Calm - N/A   Clear
12:35 AM 43.5 °F - 35.4 °F 73% 30.01 in 10.0 mi Calm Calm - N/A   Clear
12:55 AM 43.0 °F - 33.8 °F 70% 30.01 in 10.0 mi Calm Calm - N/A   Clear
1:15 AM 44.1 °F - 32.9 °F 65% 30.01 in 10.0 mi Calm Calm - N/A   Clear
1:55 AM 41.0 °F - 34.7 °F 78% 30.02 in 10.0 mi Calm Calm - N/A   Clear
2:15 AM 41.0 °F - 34.0 °F 76% 30.02 in 10.0 mi Calm Calm - N/A   Clear
2:35 AM 39.6 °F - 33.8 °F 80% 30.02 in 10.0 mi Calm Calm - N/A   Clear
2:55 AM 39.4 °F - 33.3 °F 79% 30.03 in 10.0 mi Calm Calm - N/A   Scattered Clouds
3:15 AM 38.8 °F - 33.3 °F 80% 30.03 in 10.0 mi Calm Calm - N/A   Clear
3:35 AM 37.8 °F - 32.7 °F 82% 30.04 in 10.0 mi Calm Calm - N/A   Clear
4:15 AM 37.4 °F - 32.7 °F 83% 30.04 in 10.0 mi Calm Calm - N/A   Clear
4:35 AM 36.3 °F - 32.0 °F 84% 30.04 in 10.0 mi Calm Calm - N/A   Clear
5:21 AM 35.6 °F - 32.0 °F 87% 30.05 in 10.0 mi Calm Calm - N/A   Clear
5:41 AM 33.8 °F - 30.2 °F 87% 30.05 in 10.0 mi Calm Calm - N/A   Clear
5:55 AM 33.4 °F - 31.8 °F 94% 30.07 in 10.0 mi Calm Calm - N/A   Clear
6:15 AM 32.5 °F - 31.1 °F 94% 30.07 in 10.0 mi Calm Calm - N/A   Clear
6:35 AM 32.9 °F - 31.6 °F 95% 30.07 in 10.0 mi Calm Calm - N/A   Clear
6:55 AM 32.9 °F - 31.1 °F 93% 30.07 in 10.0 mi Calm Calm - N/A   Clear
7:15 AM 32.4 °F - 31.1 °F 95% 30.08 in 10.0 mi Calm Calm - N/A   Clear
7:35 AM 32.0 °F - 30.2 °F 93% 30.08 in 10.0 mi Calm Calm - N/A   Clear
7:55 AM 32.0 °F - 30.7 °F 95% 30.08 in 10.0 mi Calm Calm - N/A   Clear
8:15 AM 32.2 °F - 30.7 °F 94% 30.08 in 10.0 mi Calm Calm - N/A   Clear
8:35 AM 33.6 °F - 31.5 °F 92% 30.08 in 10.0 mi Calm Calm - N/A   Clear
8:55 AM 36.1 °F - 32.9 °F 88% 30.09 in 10.0 mi Calm Calm - N/A   Clear
9:15 AM 39.4 °F - 34.7 °F 83% 30.09 in 10.0 mi Calm Calm - N/A   Clear
9:35 AM 42.8 °F 41.1 °F 32.5 °F 67% 30.09 in 10.0 mi South 3.5 mph - N/A   Clear
9:55 AM 44.8 °F - 26.6 °F 49% 30.09 in 10.0 mi Calm Calm - N/A   Clear
10:15 AM 45.3 °F - 26.6 °F 48% 30.09 in 10.0 mi Calm Calm - N/A   Clear
10:35 AM 45.9 °F - 24.8 °F 44% 30.09 in 10.0 mi Calm Calm - N/A   Clear
10:55 AM 47.8 °F - 26.1 °F 43% 30.08 in 10.0 mi SSW 4.6 mph - N/A   Clear
11:15 AM 48.9 °F - 25.9 °F 41% 30.08 in 10.0 mi West 8.1 mph - N/A   Scattered Clouds
11:35 AM 49.8 °F - 23.9 °F 36% 30.07 in 10.0 mi WSW 6.9 mph - N/A   Mostly Cloudy
11:55 AM 50.2 °F - 22.5 °F 34% 30.07 in 10.0 mi West 9.2 mph - N/A   Scattered Clouds
12:15 PM 50.9 °F - 23.5 °F 34% 30.07 in 10.0 mi West 8.1 mph - N/A   Scattered Clouds
12:35 PM 50.9 °F - 23.0 °F 34% 30.07 in 10.0 mi West 9.2 mph - N/A   Scattered Clouds
12:55 PM 52.2 °F - 23.2 °F 32% 30.06 in 10.0 mi WSW 10.4 mph 19.6 mph N/A   Scattered Clouds
1:15 PM 50.7 °F - 22.5 °F 33% 30.05 in 10.0 mi West 5.8 mph - N/A   Scattered Clouds
1:35 PM 51.1 °F - 22.6 °F 33% 30.04 in 10.0 mi WNW 10.4 mph 16.1 mph N/A   Scattered Clouds
1:55 PM 52.9 °F - 21.7 °F 30% 30.03 in 10.0 mi SW 15.0 mph 24.2 mph N/A   Scattered Clouds
2:15 PM 53.4 °F - 21.2 °F 28% 30.01 in 10.0 mi WSW 13.8 mph 23.0 mph N/A   Mostly Cloudy
2:35 PM 51.1 °F - 20.1 °F 30% 30.01 in 10.0 mi West 10.4 mph 20.7 mph N/A   Scattered Clouds
2:55 PM 53.8 °F - 21.7 °F 29% 30.00 in 10.0 mi WSW 11.5 mph 18.4 mph N/A   Scattered Clouds
3:15 PM 53.4 °F - 20.5 °F 28% 30.00 in 10.0 mi West 12.7 mph 21.9 mph N/A   Mostly Cloudy
3:35 PM 52.9 °F - 19.6 °F 27% 30.00 in 10.0 mi West 12.7 mph 25.3 mph N/A   Scattered Clouds
3:55 PM 53.1 °F - 20.8 °F 28% 30.00 in 10.0 mi West 12.7 mph 18.4 mph N/A   Scattered Clouds
4:15 PM 53.8 °F - 21.0 °F 28% 30.00 in 10.0 mi WSW 12.7 mph 19.6 mph N/A   Scattered Clouds
4:35 PM 52.9 °F - 19.9 °F 28% 30.00 in 10.0 mi NW 9.2 mph 24.2 mph N/A   Scattered Clouds
4:55 PM 52.9 °F - 18.5 °F 26% 30.01 in 10.0 mi West 9.2 mph 20.7 mph N/A   Scattered Clouds
5:15 PM 53.1 °F - 19.0 °F 26% 30.01 in 10.0 mi NW 10.4 mph 16.1 mph N/A   Clear
5:35 PM 52.0 °F - 18.7 °F 27% 30.02 in 10.0 mi West 10.4 mph 20.7 mph N/A   Clear
5:55 PM 51.4 °F - 20.8 °F 30% 30.03 in 10.0 mi WNW 10.4 mph 21.9 mph N/A   Clear
6:15 PM 50.4 °F - 20.1 °F 30% 30.03 in 10.0 mi NW 10.4 mph 18.4 mph N/A   Clear
6:35 PM 49.5 °F - 20.1 °F 31% 30.04 in 10.0 mi NW 12.7 mph 19.6 mph N/A   Clear
6:55 PM 48.4 °F - 19.2 °F 32% 30.06 in 10.0 mi NW 13.8 mph 18.4 mph N/A   Clear
7:15 PM 46.9 °F - 18.3 °F 32% 30.07 in 10.0 mi NNW 11.5 mph 19.6 mph N/A   Clear
7:35 PM 46.0 °F 41.4 °F 17.6 °F 32% 30.08 in 10.0 mi NW 9.2 mph - N/A   Scattered Clouds
7:55 PM 45.5 °F 40.8 °F 16.9 °F 32% 30.09 in 10.0 mi NW 9.2 mph - N/A   Clear
8:15 PM 44.6 °F 39.2 °F 16.7 °F 33% 30.09 in 10.0 mi NNW 10.4 mph 18.4 mph N/A   Scattered Clouds
8:35 PM 43.7 °F 40.3 °F 17.2 °F 35% 30.10 in 10.0 mi NW 5.8 mph - N/A   Scattered Clouds
8:55 PM 43.0 °F 38.8 °F 17.6 °F 36% 30.11 in 10.0 mi NNW 6.9 mph 16.1 mph N/A   Clear
9:15 PM 42.1 °F 35.7 °F 17.6 °F 37% 30.12 in 10.0 mi NW 11.5 mph 18.4 mph N/A   Clear
9:35 PM 41.2 °F 35.5 °F 18.1 °F 40% 30.13 in 10.0 mi NW 9.2 mph 17.3 mph N/A   Clear
9:55 PM 40.5 °F 33.6 °F 19.4 °F 43% 30.14 in 10.0 mi NNW 11.5 mph 18.4 mph N/A   Clear
10:15 PM 39.4 °F 33.8 °F 20.3 °F 46% 30.14 in 10.0 mi NNW 8.1 mph - N/A   Clear
10:35 PM 38.8 °F 32.6 °F 19.6 °F 46% 30.15 in 10.0 mi NW 9.2 mph 17.3 mph N/A   Clear
10:55 PM 38.3 °F 32.5 °F 18.7 °F 45% 30.16 in 10.0 mi North 8.1 mph 16.1 mph N/A   Clear
11:15 PM 37.6 °F 29.6 °F 18.5 °F 46% 30.16 in 10.0 mi NNW 12.7 mph 18.4 mph N/A   Clear
11:35 PM 36.9 °F 29.6 °F 17.6 °F 46% 30.17 in 10.0 mi North 10.4 mph 16.1 mph N/A   Clear
11:55 PM 36.5 °F 29.7 °F 16.7 °F 45% 30.17 in 10.0 mi NNW 9.2 mph 17.3 mph N/A   Clear